Weather History for Taunton, MA

Change the Weather History Date:

Tuesday, December 4, 2012

  Actual Average Record
Temperature  
Mean Temperature 42 °F -  
Max Temperature 57 °F 43 °F 70 °F (1998)
Min Temperature 28 °F 25 °F 6 °F (1976)
Degree Days  
Heating Degree Days 22    
Moisture  
Dew Point 39 °F    
Average Humidity 89    
Maximum Humidity 96    
Minimum Humidity 77    
Precipitation  
Precipitation 0.00 in - - ()
Sea Level Pressure  
Sea Level Pressure 30.24 in    
Wind  
Wind Speed 2 mph (South)    
Max Wind Speed 10 mph    
Max Gust Speed -    
Visibility 5 miles    
Events Fog , Rain    
Averages and records for this station are not official NWS values.
T = Trace of Precipitation, MM = Missing Value Source: NWS Daily Summary

Daily Weather History Graph

Daily Weather History Graph

Search for Another Location

Airport:

Trip Planner

Search our weather history database for the weather conditions in past years. The results will help you decide how hot, cold, wet, or windy it might be!

Date:

Astronomy

Dec. 04, 2012 Rise Set
Actual Time 6:55 AM EST 4:13 PM EST
Civil Twilight 6:24 AM EST 4:44 PM EST
Nautical Twilight 5:49 AM EST 5:19 PM EST
Astronomical Twilight 5:15 AM EST 5:52 PM EST
Moon 10:01 PM EST (12/4) 10:45 AM EST (12/4)
Length of Visible Light 10h 20m
Length of Day
9h 17m
Waning Gibbous, 69% of the Moon is Illuminated
Dec 4
Waning Gibbous
Dec 6
Last Quarter
Dec 13
New
Dec 20
First Quarter
Dec 28
Full

Hourly Weather History & Observations

Time (EST) Temp. Windchill Dew Point Humidity Pressure Visibility Wind Dir Wind Speed Gust Speed Precip Events Conditions
12:04 AM 30.0 °F - 28.0 °F 92% 30.30 in 1.5 mi Calm Calm - N/A   Clear
12:16 AM 30.0 °F - 27.0 °F 88% 30.29 in 0.8 mi Calm Calm - N/A   Clear
12:27 AM 30.0 °F - 28.0 °F 92% 30.29 in 2.5 mi Calm Calm - N/A   Clear
12:34 AM 30.0 °F - 28.0 °F 92% 30.29 in 6.0 mi Calm Calm - N/A   Clear
12:52 AM 30.0 °F - 28.0 °F 92% 30.30 in 7.0 mi Calm Calm - N/A   Clear
1:11 AM 30.0 °F - 27.0 °F 88% 30.30 in 1.2 mi Calm Calm - N/A   Clear
1:19 AM 28.9 °F - 27.0 °F 92% 30.29 in 0.5 mi Calm Calm - N/A Fog Light Freezing Fog
1:30 AM 28.9 °F - 27.0 °F 92% 30.29 in 1.5 mi Calm Calm - N/A   Clear
1:39 AM 28.9 °F - 27.0 °F 92% 30.29 in 1.0 mi Calm Calm - N/A   Clear
1:52 AM 28.9 °F - 26.1 °F 89% 30.30 in 1.2 mi Calm Calm - N/A   Clear
2:22 AM 28.9 °F - 26.1 °F 89% 30.29 in 2.0 mi Calm Calm - N/A   Clear
2:29 AM 28.9 °F - 26.1 °F 89% 30.30 in 1.2 mi Calm Calm - N/A   Clear
2:36 AM 28.9 °F - 26.1 °F 89% 30.29 in 2.0 mi Calm Calm - N/A   Clear
2:52 AM 28.9 °F - 26.1 °F 89% 30.29 in 4.0 mi Calm Calm - N/A   Partly Cloudy
3:05 AM 28.9 °F - 26.1 °F 89% 30.29 in 7.0 mi Calm Calm - N/A   Mostly Cloudy
3:36 AM 30.0 °F - 28.0 °F 92% 30.29 in 1.5 mi Calm Calm - N/A   Overcast
3:39 AM 30.0 °F - 28.0 °F 92% 30.29 in 0.8 mi Calm Calm - N/A   Mist
3:52 AM 30.9 °F - 28.9 °F 92% 30.30 in 0.2 mi Calm Calm - N/A Fog Light Freezing Fog
4:52 AM 32.0 °F - 30.0 °F 92% 30.30 in 0.2 mi Calm Calm - N/A Fog Fog
5:52 AM 33.1 °F - 30.9 °F 92% 30.31 in 0.2 mi Calm Calm - N/A Fog Fog
6:52 AM 33.1 °F 30.0 °F 32.0 °F 96% 30.31 in 0.2 mi ESE 3.5 mph - N/A Fog Fog
7:52 AM 35.1 °F - 34.0 °F 96% 30.33 in 0.2 mi Calm Calm - N/A Fog Fog
8:52 AM 41.0 °F 39.0 °F 39.0 °F 93% 30.31 in 0.5 mi ESE 3.5 mph - N/A Fog Fog
9:07 AM 44.1 °F - 43.0 °F 96% 30.32 in 1.5 mi Calm Calm - N/A   Overcast
9:10 AM 45.0 °F 43.5 °F 43.0 °F 93% 30.32 in 3.0 mi South 3.5 mph - N/A   Overcast
9:52 AM 46.9 °F - 45.0 °F 93% 30.31 in 6.0 mi SSE 4.6 mph - N/A   Overcast
10:52 AM 48.9 °F - 46.9 °F 93% 30.29 in 5.0 mi SSE 3.5 mph - N/A   Overcast
11:02 AM 50.0 °F - 46.9 °F 89% 30.28 in 5.0 mi SE 5.8 mph - N/A   Overcast
11:52 AM 52.0 °F - 48.9 °F 89% 30.26 in 10.0 mi South 6.9 mph - N/A   Overcast
12:52 PM 55.0 °F - 48.9 °F 80% 30.23 in 10.0 mi South 6.9 mph - N/A   Overcast
1:52 PM 55.9 °F - 48.9 °F 77% 30.21 in 10.0 mi SSW 10.4 mph - 0.00 in Rain Light Rain
2:17 PM 55.0 °F - 50.0 °F 83% 30.20 in 10.0 mi Variable 5.8 mph - 0.00 in   Overcast
2:52 PM 54.0 °F - 50.0 °F 86% 30.20 in 8.0 mi South 5.8 mph - 0.00 in Rain Light Rain
2:59 PM 54.0 °F - 50.0 °F 86% 30.20 in 8.0 mi South 5.8 mph - 0.00 in   Overcast
3:52 PM 54.0 °F - 50.0 °F 86% 30.19 in 9.0 mi South 5.8 mph - 0.00 in   Overcast
4:52 PM 54.0 °F - 50.0 °F 86% 30.18 in 9.0 mi SSE 5.8 mph - N/A   Overcast
6:52 PM 55.0 °F - 50.0 °F 83% 30.15 in 10.0 mi Variable 5.8 mph - N/A   Overcast
7:52 PM 55.9 °F - 51.1 °F 84% 30.13 in 10.0 mi South 9.2 mph - N/A   Overcast
8:52 PM 55.0 °F - 51.1 °F 86% 30.10 in 8.0 mi South 8.1 mph - N/A   Mostly Cloudy
8:59 PM 55.0 °F - 51.1 °F 86% 30.09 in 8.0 mi South 8.1 mph - N/A   Scattered Clouds
9:52 PM 55.0 °F - 52.0 °F 89% 30.07 in 8.0 mi South 8.1 mph - N/A   Clear
10:41 PM 55.9 °F - 52.0 °F 87% 30.05 in 8.0 mi South 6.9 mph - N/A   Mostly Cloudy
10:52 PM 55.9 °F - 52.0 °F 87% 30.05 in 8.0 mi South 5.8 mph - N/A   Overcast
11:09 PM 57.0 °F - 53.1 °F 87% 30.04 in 9.0 mi South 5.8 mph - N/A   Overcast
11:52 PM 57.9 °F - 54.0 °F 87% 30.02 in 9.0 mi SSW 9.2 mph - N/A   Overcast